Location: Kumla
(59.1265°N, 15.1401°E)
Time: 14:49:30
(UTC+01:00)

Transit 2A - Pass Details

Date: 08 December 2023
Orbit: 600 x 953 km, 66.7° (Epoch: 21 February)

Event Time Altitude Azimuth Distance (km) Brightness Sun altitude
Rises 19:25:53 0° 291° (WNW) 2,962 10.1 -31.4°
Reaches altitude 10° 19:28:27 10° 301° (WNW) 2,013 8.9 -31.8°
Enters shadow 19:30:30 22° 321° (NW) 1,366 7.7 -32.0°
Maximum altitude 19:32:28 31° 5° (N) 1,075 - -32.3°
Drops below altitude 10° 19:36:22 10° 69° (ENE) 1,952 - -32.8°
Sets 19:38:49 0° 80° (E) 2,857 - -33.1°
